Bishopton, United Kingdom

2:23 AM GMT on January 20, 2017 (GMT +0000)
Glasgow

Weather History for EGPF - March, 2013

Change the Weather History Date:

Saturday, March 16, 2013

  Actual Average Record
Temperature  
Mean Temperature 36 °F -  
Max Temperature 39 °F 50 °F 59 °F (2005)
Min Temperature 32 °F 36 °F 24 °F (2001)
Degree Days  
Heating Degree Days 30    
Moisture  
Dew Point 34 °F    
Average Humidity 92    
Maximum Humidity 100    
Minimum Humidity 81    
Precipitation  
Precipitation 0.00 in - - ()
Sea Level Pressure  
Sea Level Pressure 29.29 in    
Wind  
Wind Speed 4 mph ()    
Max Wind Speed 9 mph    
Max Gust Speed -    
Visibility 5.4 miles    
Events Fog , Rain    
Averages and records for this station are not official NWS values.
T = Trace of Precipitation, MM = Missing Value Source: Averaged Metar Reports

Daily Weather History Graph

Daily Weather History Graph

Search for Another Location

Airport or City:

Trip Planner

Search our weather history database for the weather conditions in past years. The results will help you decide how hot, cold, wet, or windy it might be!

Date:

Astronomy

Mar. 16, 2013 Rise Set
Actual Time 6:30 AM GMT 6:23 PM GMT
Civil Twilight 5:53 AM GMT 7:00 PM GMT
Nautical Twilight 5:09 AM GMT 7:44 PM GMT
Astronomical Twilight 4:24 AM GMT 8:29 PM GMT
Moon 7:57 AM GMT (3/16) No Moon Set
Length of Visible Light 13h 07m
Length of Day
11h 53m
Waxing Crescent, 21% of the Moon is Illuminated
Mar 16
Waxing Crescent
Mar 19
First Quarter
Mar 27
Full
Apr 3
Last Quarter
Apr 10
New

Hourly Weather History & Observations

Time (GMT) Temp. Windchill Dew Point Humidity Pressure Visibility Wind Dir Wind Speed Gust Speed Precip Events Conditions
12:20 AM 32.0 °F 27.5 °F 32.0 °F 100% 29.39 in 6.2 mi ENE 4.6 mph - N/A   Unknown
12:50 AM 33.8 °F 28.6 °F 32.0 °F 93% 29.39 in 6.2 mi ENE 5.8 mph - N/A   Unknown
1:20 AM 33.8 °F - 32.0 °F 93% 29.39 in 6.2 mi Calm Calm - N/A   Unknown
1:50 AM 33.8 °F 29.6 °F 32.0 °F 93% 29.36 in - North 4.6 mph - N/A   Clear
2:20 AM 32.0 °F 27.5 °F 32.0 °F 100% 29.36 in 5.0 mi NE 4.6 mph - N/A   Unknown
2:50 AM 32.0 °F - 30.2 °F 93% 29.36 in 5.0 mi Calm Calm - N/A   Partly Cloudy
3:20 AM 32.0 °F - 32.0 °F 100% 29.36 in - NE 2.3 mph - N/A   Haze
3:50 AM 32.0 °F 28.7 °F 32.0 °F 100% 29.33 in - NNE 3.5 mph - N/A   Haze
4:20 AM 32.0 °F 27.5 °F 30.2 °F 93% 29.33 in 0.6 mi NE 4.6 mph - N/A Fog Fog
4:50 AM 33.8 °F - 32.0 °F 93% 29.33 in 5.0 mi Variable 2.3 mph - N/A   Partly Cloudy
5:20 AM 33.8 °F 30.8 °F 32.0 °F 93% 29.33 in 5.0 mi SE 3.5 mph - N/A   Unknown
5:50 AM 32.0 °F 28.7 °F 30.2 °F 93% 29.33 in 5.6 mi SSW 3.5 mph - N/A   Unknown
6:20 AM 32.0 °F - 32.0 °F 100% 29.33 in 3.1 mi Variable 2.3 mph - N/A   Haze
6:50 AM 33.8 °F - 32.0 °F 93% 29.33 in 2.5 mi WNW 2.3 mph - N/A   Scattered Clouds
7:20 AM 33.8 °F - 32.0 °F 93% 29.33 in 3.1 mi West 2.3 mph - N/A   Mostly Cloudy
7:50 AM 33.8 °F 30.8 °F 32.0 °F 93% 29.33 in 3.1 mi WSW 3.5 mph - N/A   Partly Cloudy
8:20 AM 33.8 °F - 32.0 °F 93% 29.33 in 3.1 mi SSW 2.3 mph - N/A   Mist
8:50 AM 33.8 °F - 33.8 °F 100% 29.30 in 3.1 mi WNW 2.3 mph - N/A   Mostly Cloudy
9:20 AM 35.6 °F - 33.8 °F 93% 29.30 in - WSW 2.3 mph - N/A   Haze
9:50 AM 37.4 °F - 35.6 °F 93% 29.30 in 6.2 mi Calm Calm - N/A   Mostly Cloudy
10:20 AM 39.2 °F - 35.6 °F 87% 29.30 in 6.2 mi NNW 2.3 mph - N/A Rain Light Rain
10:50 AM 39.2 °F 34.2 °F 35.6 °F 87% 29.30 in 6.2 mi NNE 6.9 mph - N/A Rain Light Rain
11:20 AM 39.2 °F 34.2 °F 35.6 °F 87% 29.30 in 6.2 mi NE 6.9 mph - N/A Rain Light Rain
11:50 AM 39.2 °F 33.6 °F 35.6 °F 87% 29.30 in 6.2 mi NNE 8.1 mph - N/A Rain Light Rain
12:20 PM 39.2 °F 33.6 °F 35.6 °F 87% 29.30 in 6.2 mi NNE 8.1 mph - N/A Rain Light Rain
12:50 PM 39.2 °F 34.2 °F 35.6 °F 87% 29.27 in 6.2 mi NE 6.9 mph - N/A Rain Light Rain
1:20 PM 39.2 °F 34.2 °F 33.8 °F 81% 29.27 in 6.2 mi NE 6.9 mph - N/A Rain Light Rain
1:50 PM 39.2 °F 35.0 °F 35.6 °F 87% 29.27 in 6.2 mi North 5.8 mph - N/A Rain Light Rain
2:20 PM 39.2 °F 35.0 °F 35.6 °F 87% 29.27 in 6.2 mi North 5.8 mph - N/A Rain Light Rain
2:50 PM 39.2 °F 35.9 °F 35.6 °F 87% 29.24 in 6.2 mi North 4.6 mph - N/A Rain Light Rain
3:20 PM 39.2 °F 35.0 °F 35.6 °F 87% 29.24 in 6.2 mi NW 5.8 mph - N/A Rain Light Rain
3:50 PM 39.2 °F 34.2 °F 35.6 °F 87% 29.24 in 6.2 mi NW 6.9 mph - N/A Rain Light Rain
4:20 PM 37.4 °F 30.8 °F 33.8 °F 87% 29.24 in 6.2 mi NW 9.2 mph - N/A Rain Light Rain
4:50 PM 37.4 °F 30.8 °F 33.8 °F 87% 29.24 in 6.2 mi NW 9.2 mph - N/A Rain Light Rain
5:20 PM 37.4 °F 32.1 °F 35.6 °F 93% 29.24 in 6.2 mi West 6.9 mph - N/A Rain Light Rain
5:50 PM 37.4 °F 32.1 °F 35.6 °F 93% 29.24 in 6.2 mi West 6.9 mph - N/A Rain Light Rain
6:20 PM 37.4 °F 31.4 °F 35.6 °F 93% 29.24 in 5.6 mi West 8.1 mph - N/A Rain Light Rain
6:50 PM 35.6 °F 29.9 °F 33.8 °F 93% 29.24 in 6.2 mi WSW 6.9 mph - N/A Rain Light Rain
7:20 PM 35.6 °F 29.9 °F 33.8 °F 93% 29.24 in 6.2 mi WSW 6.9 mph - N/A Rain Light Rain
7:50 PM 35.6 °F 29.9 °F 33.8 °F 93% 29.24 in 6.2 mi WSW 6.9 mph - N/A Rain Light Rain
8:20 PM 35.6 °F 30.7 °F 33.8 °F 93% 29.24 in 6.2 mi SW 5.8 mph - N/A Rain Light Rain
8:50 PM 37.4 °F 32.8 °F 35.6 °F 93% 29.24 in 6.2 mi SW 5.8 mph - N/A   Mostly Cloudy
9:20 PM 37.4 °F 33.8 °F 35.6 °F 93% 29.24 in 6.2 mi SSW 4.6 mph - N/A Rain Light Rain
9:50 PM 37.4 °F 34.9 °F 35.6 °F 93% 29.24 in 5.0 mi South 3.5 mph - N/A   Overcast
10:20 PM 35.6 °F 32.8 °F 33.8 °F 93% 29.24 in 5.0 mi SE 3.5 mph - N/A   Overcast
10:50 PM 35.6 °F - 33.8 °F 93% 29.24 in 5.0 mi ESE 2.3 mph - N/A   Overcast
11:20 PM 35.6 °F 32.8 °F 33.8 °F 93% 29.24 in 5.6 mi Variable 3.5 mph - N/A   Mostly Cloudy
11:50 PM 35.6 °F 30.7 °F 33.8 °F 93% 29.24 in 5.0 mi ESE 5.8 mph - N/A   Mostly Cloudy